Regional Weather Roundup
Issued by NWS

Home | Current Version | Previous Version | Graphics & Text | Print | Product List | Glossary On
Versions: 1 2 3 4 5 6 7 8 9 10 11 12 13 14 15 16 17 18 19 20 21 22 23 24 25 26 27 28 29 30 31 32 33 34 35 36 37 38 39 40 41 42 43 44 45 46 47 48 49 50
000
ASUS43 KOAX 241510
RWRNE

WEATHER ROUNDUP FOR NEBRASKA
NATIONAL WEATHER SERVICE OMAHA NE
1000 AM CDT TUE MAY 24 2016

NOTES: SATELLITE DATA IS BEING USED TO AUGMENT CLOUD COVER ABOVE
       12000 FEET.
       "FAIR" INDICATES FEW OR NO CLOUDS BELOW 12,000 FEET WITH NO
       SIGNIFICANT WEATHER AND/OR OBSTRUCTIONS TO VISIBILITY.

  * THESE STATIONS DO NOT REPORT WEATHER SUCH AS RAIN...SNOW OR FOG.

NEZ001>004-019>022-054>056-241600-
NEBRASKA PANHANDLE

CITY           SKY/WX    TMP DP  RH WIND       PRES   REMARKS
SCOTTSBLUFF    SUNNY     57  46  66 SE9       29.95R
ALLIANCE       SUNNY     58  50  75 SE6       29.94R
CHADRON        SUNNY     61  40  45 NE6       29.93R
KIMBALL        PTSUNNY   59  42  52 SE8       29.98R
SIDNEY         SUNNY     63  43  48 S8        29.96R
$$

NEZ057>060-069>072-079>082-241600-
SOUTHWEST NEBRASKA

CITY           SKY/WX    TMP DP  RH WIND       PRES   REMARKS
NORTH PLATTE   CLOUDY    63  52  67 CALM      29.92R
IMPERIAL       SUNNY     64  50  60 CALM      29.94R
LEXINGTON      MOSUNNY   68  61  78 S16       29.91R
MCCOOK         SUNNY     67  58  72 SE13      29.92R
OGALLALA       MOSUNNY   58  47  66 CALM      29.95R
$$

NEZ005>010-023>029-035>040-094-241600-
NORTH CENTRAL NEBRASKA

CITY           SKY/WX    TMP DP  RH WIND       PRES   REMARKS
VALENTINE      SUNNY     63  44  50 CALM      29.91R
AINSWORTH      SUNNY     68  43  40 NW3       29.90S
BROKEN BOW     SUNNY     72  52  49 SE5       29.90R
O`NEILL        SUNNY     69  53  58 W3        29.88S
ORD            SUNNY     68  53  58 CALM      29.87R
THEDFORD       CLOUDY    67  48  51 N5        29.93R
$$

NEZ041-046>049-061>064-073>077-083>087-241600-
SOUTH CENTRAL NEBRASKA

CITY           SKY/WX    TMP DP  RH WIND       PRES   REMARKS
GRAND ISLAND   CLOUDY    70  60  70 SW6       29.88S
AURORA         CLOUDY    68  63  84 SW9       29.86F
HASTINGS       CLOUDY    67  60  78 S10       29.88F
HEBRON         PTSUNNY   64  58  78 S3        29.88R
HOLDREGE       CLOUDY    66  57  72 S12       29.91S
KEARNEY *      CLOUDY    68  63  83 S17       29.91R
YORK           CLOUDY    66  61  82 SW6       29.87S
$$

NEZ011>018-030>034-042>045-241600-
NORTHEAST NEBRASKA

CITY           SKY/WX    TMP DP  RH WIND       PRES   REMARKS
NORFOLK        CLOUDY    67  61  81 CALM      29.87F
ALBION         CLOUDY    67  61  83 S5        29.89R
BLAIR          PTSUNNY   65  64  94 S9        29.91R
FREMONT        PTSUNNY   65  63  94 S7        29.90S
TEKAMAH        PTSUNNY   65  62  90 S7        29.89R
WAYNE          PTSUNNY   67  64  87 SW6       29.88S
$$

NEZ050>053-065>068-078-088>093-241600-
SOUTHEAST NEBRASKA

CITY           SKY/WX    TMP DP  RH WIND       PRES   REMARKS
LINCOLN        PTSUNNY   65  60  84 E8        29.88S
OMAHA EPPLEY   CLOUDY    66  63  90 S6        29.91R
BEATRICE       CLOUDY    64  55  74 SE9G21    29.84F
FALLS CITY     LGT RAIN  63  59  87 W13       29.94S
NEBRASKA CITY  CLOUDY    65  59  80 SW21      29.90F
PLATTSMOUTH    CLOUDY    67  63  86 SE12      29.87F
$$

NEZ044-045-051>053-067-241600-
OMAHA AREA

CITY           SKY/WX    TMP DP  RH WIND       PRES   REMARKS
OMAHA EPPLEY   CLOUDY    66  63  90 S6        29.91R
BLAIR          PTSUNNY   65  64  94 S9        29.91R
FREMONT        PTSUNNY   65  63  94 S7        29.90S
MILLARD        PTSUNNY   67  64  89 S6        29.90S
PLATTSMOUTH    CLOUDY    67  63  86 SE12      29.87F
WAHOO          FAIR      65  62  91 CALM      29.90R
$$



USA.gov is the U.S. government's official web portal to all federal, state and local government web resources and services.